Weather in Onor

Russia / Sakhalin District     50°11′29″N   142°40′55″E
temp.,
°C
wind,
m/s
gust,
m/s
humid.,
%
clouds,
%
prec.,
mm/h
press.,
hPa
HPBL,
m
18 january, tue
tue1823:00−13nnw4119197 0.0 1014362
02:00−13nnw4129099 0.0 1014397
05:00−13nnw5129075 0.0 1014414
08:00−14nnw5129066 0.1 1015390
11:00−14nnw41190100 0.1 1016348
14:00−10n5108659 0.0 1016425
17:00−10nnw5128615 0.0 1017529
20:00−13nnw5148610 0.0 1019537
19 january, wed
wed1923:00−18nnw311866 0.0 1021302
02:00−21nw27926 0.0 1022171
05:00−22nw239617 0.0 102263
08:00−23nw129730 0.0 102241
11:00−19nnw248949 0.0 1022123
14:00−13nnw377332 0.0 1020576
17:00−13nnw368328 0.0 1020383
20:00−20nw229727 0.0 102237
20 january, thu
thu2023:00−22nw129724 0.0 102236
02:00−22nw129891 0.0 102250
05:00−19nnw139897 0.0 102178
08:00
11:00−17nnw269292 0.0 1022200
14:00−12n4883100 0.0 1020556
17:00
20:00−17nw379366 0.0 1022170
21 january, fri
fri2123:00−19nnw269624 0.0 1023138
02:00−19nnw269726 0.0 1023136
05:00−19nnw279650 0.0 1023148
08:00−17nnw21090100 0.0 1024313
11:00−15nnw31180100 0.0 1024389
14:00−12nnw41070100 0.0 1023545
17:00−12n3979100 0.0 1023470
20:00−15nnw2791100 0.0 1024189
22 january, sat
sat2223:00−16nnw2587100 0.0 1024121
02:00−17nnw248899 0.0 102474
05:00−18nw129295 0.0 102445
08:00−20nw1292100 0.0 102434
11:00−17n138253 0.0 1025104
14:00−11n247294 0.0 1023342
17:00−11nne1187100 0.0 102342
20:00−17wnw1195100 0.0 102415